User: anonymous   Login
Location: Prague
(50.0830°N, 14.4670°E)
Time: 23:46:25
(UTC+01:00)
Language:

STARLINK-1652 - Orbit

View from above orbital plane
View from above orbital plane
View from above satellite
View from above satellite

Ground track
Ground track

The orbit data is extracted from the following two-line orbital elements,

1 46367C 20062AV  20337.58630954  .00000563  00000-0  38575-4 0  3373
2 46367  53.0005   9.7672 0001430  68.5907 339.2301 15.05573835    19
Epoch (UTC): 02 December 2020 14:04:17
Eccentricity: 0.0001430
inclination: 53.0005°
perigee height: 549 km
apogee height: 551 km
right ascension of ascending node: 9.7672°
argument of perigee: 68.5907°
revolutions per day: 15.05573835
mean anomaly at epoch: 339.2301°
orbit number at epoch: 1

The dashed part of the orbit path shows where the satellite is in the earth's shadow,  

DLR